Location: Newark
(25.6108°S, 54.5803°W)
Time: 06:09:26
(UTC+00:00)

deb Explorer IX - Pass Details

Date: 03 November 2020
Orbit: 538 x 1104 km, 38.8° (Epoch: 27 November)

Event Time Altitude Azimuth Distance (km) Brightness Sun altitude
Rises 00:42:51 0° 241° (WSW) 2,945 ? -33.8°
Reaches altitude 10° 00:45:19 10° 242° (WSW) 1,961 ? -34.2°
Enters shadow 00:46:41 19° 244° (WSW) 1,428 ? -34.4°
Maximum altitude 00:49:44 72° 325° (NW) 594 - -34.9°
Drops below altitude 10° 00:53:47 10° 50° (NE) 1,797 - -35.6°
Sets 00:55:58 0° 52° (NE) 2,675 - -35.9°
